Starlink 5525

operational
NORAD ID: 57218 Int'l Des: 2023-094 Owner: SPXS Country: US Constellation: starlink
LEOCIRCULAR

Über Starlink 5525

Beschreibung wird geladen...

Live-Position

3D-Globus wird geladen...

Nächste Überflüge

Höhenverlauf

Altitude vs Time

uPlot chart will show altitude changes over time

Zweizeiliger Elementsatz

1 57218U 23094A 25258.70886141 -.00000075 00000-0 95048-5 0 9992
2 57218 43.0032 261.5305 0001113 270.8588 89.2127 15.02535603120791
Epoch: 15. Sept. 2025 • Age: 17 hours

Aktueller Status

Höhe 561.1 km
Geschwindigkeit 7.58 km/s
Subsatellitenpunkt -12.94°S, 90.59°E
Startdatum 7. Juli 2023
Alter 2.1 years
Typ internet

Technische Details

Klassifizierung Payload
Masse 305.00 kg
Trockenmasse 290.00 kg
Gesamtmasse 305.00 kg
Länge 0.20 m
Durchmesser 2.80 m
Spannweite 9.00 m
Form Box + pan
Hersteller SPXS
Bus-Typ Starlink
Phasenstatus In Orbit
Besitzer/Staat SPXS/US

Große Konstellationen

Loading constellations...